Tracking 21045 objects as of 3-Aug-2020
HD Live streaming from Space Station
objects crossing your sky now

THOR BURNER 2 R/B

Track THOR BURNER 2 R/B now!
10-day predictions


NORAD ID: 4954
Int'l Code: 1971-012B
Perigee: 744.5 km
Apogee: 798.1 km
Inclination: 98.6 °
Period: 100.1 minutes
Semi major axis: 7142 km
RCS: 1.7004 m2 (large)
Launch date: February 17, 1971
Source: United States (US)
Launch site: AIR FORCE WESTERN TEST RANGE (AFWTR)

Note: This is a ROCKET BODY
aabbcc
Your satellite tracking list
Your tracking list is empty




NASA's NSSDC Master Catalog

Two Line Element Set (TLE):
1  4954U 71012B   20216.11099154  .00000004  00000-0  15879-4 0  9992
2  4954  98.5993  67.0709 0037511 165.4247 194.8031 14.38276968587978
Source of the keplerian elements: AFSPC